This demonstration page uses our WeatherBlox Daily Observations layout. Learn more.

Left ArrowRight Arrow

39.51506, -84.39828

Hourly Observations for June 1, 2017

Temp ( °F °C ) Dew Point ( °F °C ) Humidity (%) Winds ( mph kmh ) Pressure ( in mb ) Visibility ( mi km ) Precip ( " mm )
12:15 am 00:15 Clear 60 15.3 51 10.7 74 74 Calm 30.06 1018 10 16 0.00 0.00
12:35 am 00:35 Clear 59 15 49 9.7 71 71 Calm 30.06 1018 10 16 0.00 0.00
12:55 am 00:55 Clear 57 13.8 49 9.5 75 75 Calm 30.06 1018 10 16 0.00 0.00
1:15 am 01:15 Clear 55 12.8 48 8.9 77 77 Calm 30.06 1018 10 16 0.00 0.00
1:35 am 01:35 Clear 57 13.8 49 9.4 75 75 Calm 30.06 1018 10 16 0.00 0.00
1:55 am 01:55 Clear 55 12.5 46 8 74 74 NNE 3 6 30.06 1018 10 16 0.00 0.00
2:15 am 02:15 Clear 55 12.5 48 9 79 79 N 5 7 30.06 1018 10 16 0.00 0.00
2:35 am 02:35 Clear 55 12.5 48 8.7 78 78 NNE 5 7 30.06 1018 10 16 0.00 0.00
2:55 am 02:55 Clear 55 12.5 47 8.6 77 77 NNE 5 7 30.06 1018 10 16 0.00 0.00
3:15 am 03:15 Clear 55 12.8 48 8.8 77 77 Calm 30.06 1018 10 16 0.00 0.00
3:35 am 03:35 Clear 53 11.4 46 7.7 78 78 Calm 30.09 1019 10 16 0.00 0.00
3:55 am 03:55 Clear 55 12.5 47 8.6 77 77 Calm 30.09 1019 10 16 0.00 0.00
4:15 am 04:15 Clear 55 12.5 48 9 79 79 Calm 30.09 1019 10 16 0.00 0.00
4:35 am 04:35 Clear 55 12.5 49 9.2 80 80 Calm 30.09 1019 10 16 0.00 0.00
4:55 am 04:55 Clear 50 10.2 45 7.2 82 82 Calm 30.09 1019 10 16 0.00 0.00
5:15 am 05:15 Clear 51 10.3 46 7.5 83 83 Calm 30.09 1019 10 16 0.00 0.00
5:35 am 05:35 Clear 49 9.6 44 6.8 83 83 Calm 30.09 1019 10 16 0.00 0.00
5:55 am 05:55 Clear 49 9.6 44 6.8 83 83 Calm 30.09 1019 10 16 0.00 0.00
6:15 am 06:15 Sunny with Mist and Fog 49 9.6 45 7 84 84 Calm 30.09 1019 5 8 0.00 0.00
6:35 am 06:35 Sunny 49 9.6 45 7 84 84 Calm 30.09 1019 10 16 0.00 0.00
6:55 am 06:55 Sunny 49 9.6 45 7 84 84 Calm 30.12 1020 10 16 0.00 0.00
7:15 am 07:15 Sunny 52 11 47 8.2 83 83 Calm 30.12 1020 10 16 0.00 0.00
7:35 am 07:35 Sunny 55 12.5 49 9.2 80 80 Calm 30.12 1020 10 16 0.00 0.00
7:55 am 07:55 Sunny 56 13.6 49 9.6 77 77 Calm 30.12 1020 10 16 0.00 0.00
8:15 am 08:15 Sunny 57 14 49 9.2 73 73 Calm 30.12 1020 10 16 0.00 0.00
8:35 am 08:35 Sunny 60 15.3 50 9.9 70 70 Calm 30.12 1020 10 16 0.00 0.00
8:55 am 08:55 Sunny 62 16.7 50 9.8 64 64 Calm 30.09 1019 10 16 0.00 0.00
9:15 am 09:15 Sunny 66 18.9 49 9.3 54 54 SSW 3 6 30.09 1019 10 16 0.00 0.00
9:35 am 09:35 Sunny 69 20.8 49 9.5 49 49 Calm 30.09 1019 10 16 0.00 0.00
9:55 am 09:55 Sunny 69 20.8 50 9.9 50 50 SSW 6 9 30.09 1019 10 16 0.00 0.00
10:15 am 10:15 Sunny 70 20.9 46 8 44 44 SSW 5 7 30.09 1019 10 16 0.00 0.00
10:35 am 10:35 Sunny 74 23.5 47 8.4 38 38 S 6 9 30.09 1019 10 16 0.00 0.00
10:55 am 10:55 Sunny 74 23.6 41 5.2 30 30 W 6 9 30.09 1019 10 16 0.00 0.00
11:15 am 11:15 Sunny 74 23.6 42 5.7 32 32 W 7 11 30.09 1019 10 16 0.00 0.00
11:35 am 11:35 Sunny 74 23.6 35 1.4 23 23 Calm 30.09 1019 10 16 0.00 0.00
11:55 am 11:55 Sunny 74 23.6 33 0.4 22 22 Calm 30.09 1019 10 16 0.00 0.00
12:15 pm 12:15 Sunny 74 23.6 34 1.2 23 23 Calm 30.09 1019 10 16 0.00 0.00
12:35 pm 12:35 Sunny 74 23.6 32 0 21 21 SSW 6 9 30.09 1019 10 16 0.00 0.00
12:55 pm 12:55 Sunny 75 24 33 0.8 22 22 Calm 30.09 1019 10 16 0.00 0.00
1:15 pm 13:15 Sunny 77 24.8 32 0 20 20 NW 6 9 30.09 1019 10 16 0.00 0.00
1:35 pm 13:35 Sunny 77 25.1 35 1.4 21 21 W 7 11 30.09 1019 10 16 0.00 0.00
1:55 pm 13:55 Sunny 77 25.1 30 -1.2 18 18 Calm 30.09 1019 10 16 0.00 0.00
2:15 pm 14:15 Sunny 77 25.1 35 1.7 22 22 WNW 6 9 30.06 1018 10 16 0.00 0.00
2:35 pm 14:35 Sunny 77 25.1 33 0.8 20 20 W 8 13 30.06 1018 10 16 0.00 0.00
2:55 pm 14:55 Sunny 77 25.1 33 0.8 20 20 NW 6 9 30.06 1018 10 16 0.00 0.00
3:15 pm 15:15 Sunny 77 25.1 32 -0.2 19 19 WSW 3 6 30.06 1018 10 16 0.00 0.00
3:35 pm 15:35 Sunny 77 25.2 34 0.9 20 20 S 5 7 30.06 1018 10 16 0.00 0.00
3:55 pm 15:55 Sunny 80 26.5 34 1 19 19 W 7 11 30.06 1018 10 16 0.00 0.00
4:15 pm 16:15 Sunny 79 26.2 33 0.7 19 19 WNW 7 11 30.06 1018 10 16 0.00 0.00
4:35 pm 16:35 Sunny 80 26.5 31 -0.3 17 17 Calm 30.03 1017 10 16 0.00 0.00
4:55 pm 16:55 Sunny 80 26.5 31 -0.4 17 17 W 7 11 30.03 1017 10 16 0.00 0.00
5:15 pm 17:15 Sunny 80 26.5 33 0.3 18 18 WNW 8 13 30.03 1017 10 16 0.00 0.00
5:35 pm 17:35 Sunny 79 26.3 36 2.4 21 21 W 9 15 30.03 1017 10 16 0.00 0.00
5:55 pm 17:55 Sunny 77 25.2 30 -0.9 18 18 W 5 7 30.03 1017 10 16 0.00 0.00
6:15 pm 18:15 Sunny 80 26.5 33 0.5 18 18 W 5 7 30.03 1017 10 16 0.00 0.00
6:35 pm 18:35 Sunny 78 25.3 32 0 19 19 WSW 7 11 30.00 1016 10 16 0.00 0.00
6:55 pm 18:55 Sunny 77 25.1 32 -0.2 19 19 W 7 11 30.00 1016 10 16 0.00 0.00
7:35 pm 19:35 Sunny 77 25.1 31 -0.4 19 19 WSW 8 13 30.00 1016 10 16 0.00 0.00
7:55 pm 19:55 Sunny 77 24.9 35 1.8 22 22 W 8 13 29.97 1015 10 16 0.00 0.00
8:15 pm 20:15 Sunny 74 23.6 42 5.6 31 31 SW 5 7 30.00 1016 10 16 0.00 0.00
8:35 pm 20:35 Sunny 72 22 44 6.8 38 38 WSW 5 7 30.00 1016 10 16 0.00 0.00
8:55 pm 20:55 Sunny 69 20.8 50 9.9 50 50 WSW 3 6 30.03 1017 10 16 0.00 0.00
9:15 pm 21:15 Clear 63 17.4 49 9.7 61 61 Calm 30.03 1017 10 16 0.00 0.00
9:35 pm 21:35 Clear 64 18 47 8.6 54 54 Calm 30.03 1017 10 16 0.00 0.00
9:55 pm 21:55 Clear 63 17.1 47 8.3 56 56 Calm 30.03 1017 10 16 0.00 0.00
10:15 pm 22:15 Clear 61 16.3 49 9.5 64 64 Calm 30.03 1017 10 16 0.00 0.00
10:35 pm 22:35 Clear 60 15.3 50 10.2 72 72 Calm 30.06 1018 10 16 0.00 0.00
10:55 pm 22:55 Clear 60 15.3 50 9.8 70 70 Calm 30.06 1018 10 16 0.00 0.00
11:15 pm 23:15 Clear 60 15.3 49 9.4 68 68 Calm 30.06 1018 10 16 0.00 0.00
11:35 pm 23:35 Clear 59 15.2 51 10.6 74 74 Calm 30.06 1018 10 16 0.00 0.00
11:55 pm 23:55 Clear 57 13.8 49 9.5 75 75 Calm 30.06 1018 10 16 0.00 0.00

Powered by AerisWeather